Weather History for Vero Beach, FL

Change the Weather History Date:

Tuesday, October 28, 2014

  Actual Average Record
Temperature  
Mean Temperature 70 °F 74 °F  
Max Temperature 82 °F 82 °F 91 °F (1985)
Min Temperature 58 °F 66 °F 48 °F (1957)
Degree Days  
Heating Degree Days 0 0  
Month to date heating degree days 0 0  
Since 1 July heating degree days 0 0  
Cooling Degree Days 5 9  
Month to date cooling degree days 259 334  
Year to date cooling degree days 3044 3101  
Growing Degree Days 20 (Base 50)    
Moisture  
Dew Point 61 °F    
Average Humidity 74    
Maximum Humidity 97    
Minimum Humidity 51    
Precipitation  
Precipitation 0.00 in 0.11 in 4.22 in (1986)
Month to date precipitation 4.03 4.58  
Year to date precipitation 48.08 46.07  
Sea Level Pressure  
Sea Level Pressure 30.12 in    
Wind  
Wind Speed 4 mph (East)    
Max Wind Speed 15 mph    
Max Gust Speed 20 mph    
Visibility 10 miles    
Events      
T = Trace of Precipitation, MM = Missing Value Source: NWS Daily Summary

Daily Weather History Graph

Daily Weather History Graph

Search for Another Location

Airport:

Trip Planner

Search our weather history database for the weather conditions in past years. The results will help you decide how hot, cold, wet, or windy it might be!

Date:

Astronomy

Oct. 28, 2014 Rise Set
Actual Time 7:29 AM EDT 6:40 PM EDT
Civil Twilight 7:05 AM EDT 7:04 PM EDT
Nautical Twilight 6:38 AM EDT 7:32 PM EDT
Astronomical Twilight 6:10 AM EDT 7:59 PM EDT
Moon 11:48 AM EDT (10/28) 10:53 PM EDT (10/28)
Length of Visible Light 11h 58m
Length of Day
11h 11m
Waxing Crescent, 24% of the Moon is Illuminated
Oct 28
Waxing Crescent
Oct 30
First Quarter
Nov 6
Full
Nov 14
Last Quarter
Nov 22
New

Hourly Weather History & Observations

Time (EDT) Temp. Heat Index Dew Point Humidity Pressure Visibility Wind Dir Wind Speed Gust Speed Precip Events Conditions
12:53 AM 61.0 °F - 59.0 °F 93% 30.11 in 10.0 mi Calm Calm - N/A   Clear
1:53 AM 61.0 °F - 59.0 °F 93% 30.11 in 10.0 mi Calm Calm - N/A   Partly Cloudy
2:53 AM 60.1 °F - 59.0 °F 96% 30.10 in 10.0 mi Calm Calm - N/A   Clear
3:53 AM 60.1 °F - 59.0 °F 96% 30.10 in 10.0 mi Calm Calm - N/A   Clear
4:53 AM 59.0 °F - 57.9 °F 96% 30.10 in 10.0 mi Calm Calm - N/A   Clear
5:53 AM 59.0 °F - 57.0 °F 93% 30.12 in 10.0 mi Calm Calm - N/A   Clear
6:53 AM 60.1 °F - 57.9 °F 93% 30.13 in 10.0 mi Calm Calm - N/A   Clear
7:53 AM 60.1 °F - 57.9 °F 93% 30.14 in 10.0 mi West 3.5 mph - N/A   Scattered Clouds
8:53 AM 64.0 °F - 63.0 °F 96% 30.16 in 10.0 mi Calm Calm - N/A   Scattered Clouds
9:53 AM 75.0 °F - 64.0 °F 69% 30.17 in 10.0 mi Calm Calm - N/A   Clear
10:53 AM 79.0 °F - 61.0 °F 54% 30.17 in 10.0 mi SE 13.8 mph - N/A   Clear
11:53 AM 80.1 °F 81.2 °F 62.1 °F 54% 30.17 in 10.0 mi ESE 11.5 mph - N/A   Scattered Clouds
12:53 PM 81.0 °F 81.9 °F 62.1 °F 52% 30.15 in 10.0 mi East 10.4 mph - N/A   Scattered Clouds
1:53 PM 81.0 °F 81.9 °F 62.1 °F 52% 30.12 in 10.0 mi East 12.7 mph - N/A   Clear
2:53 PM 81.0 °F 82.2 °F 63.0 °F 54% 30.11 in 10.0 mi East 10.4 mph - N/A   Clear
3:53 PM 81.0 °F 81.7 °F 61.0 °F 50% 30.10 in 10.0 mi East 6.9 mph - N/A   Clear
4:53 PM 80.1 °F 81.2 °F 62.1 °F 54% 30.09 in 10.0 mi East 8.1 mph - N/A   Clear
5:53 PM 78.1 °F - 60.1 °F 54% 30.10 in 10.0 mi East 8.1 mph - N/A   Clear
6:53 PM 73.0 °F - 63.0 °F 71% 30.11 in 10.0 mi East 4.6 mph - N/A   Clear
7:53 PM 71.1 °F - 64.0 °F 78% 30.11 in 10.0 mi East 3.5 mph - N/A   Clear
8:53 PM 66.0 °F - 63.0 °F 90% 30.12 in 10.0 mi East 3.5 mph - N/A   Clear
9:53 PM 64.9 °F - 62.1 °F 90% 30.12 in 10.0 mi East 3.5 mph - N/A   Clear
10:53 PM 64.0 °F - 62.1 °F 93% 30.13 in 10.0 mi Calm Calm - N/A   Clear
11:53 PM 63.0 °F - 60.1 °F 90% 30.12 in 10.0 mi Calm Calm - N/A   Clear